This demonstration page uses our WeatherBlox Daily Observations layout. Learn more.

Left ArrowRight Arrow

Hourly Observations for February 2, 2021

Temp ( °F °C ) Dew Point ( °F °C ) Humidity (%) Winds ( mph kmh ) Pressure ( in mb ) Visibility ( mi km ) Precip ( " mm )
12:07 am 00:07 Cloudy with Mist and Fog 24 -4.4 22 -5.6 91 91 SE 6 9 30.4 1030 2.5 4.02335 0 0
12:14 am 00:14 Cloudy with Mist and Fog 24 -4.4 22 -5.6 91 91 SSE 6 9 30.4 1030 4 6.43736 0 0
12:24 am 00:24 Cloudy with Light Snow 24 -4.4 21 -6.1 88 88 SE 7 11 30.39 1029 2.5 4.02335 0.001 0.001
12:34 am 00:34 Cloudy with Mist and Fog 24 -4.4 21 -6.1 88 88 SE 6 9 30.39 1029 3 4.82802 0.001 0.001
12:51 am 00:51 Cloudy with Mist and Fog 25 -4 21 -6 86 86 ESE 7 11 30.38 1029 2.5 4.02335 0.001 0.001
12:54 am 00:54 Cloudy with Mist and Fog 24 -4.4 21 -6.1 88 88 ESE 7 11 30.34 1028 2 3.21868 0.001 0.001
1:01 am 01:01 Cloudy with Mist and Fog 24 -4.4 21 -6.1 88 88 SSE 6 9 30.38 1029 1.75 2.816345 0 0
1:33 am 01:33 Cloudy with Mist and Fog 23 -5 21 -6.1 92 92 SSE 7 11 30.38 1029 3 4.82802 0 0
1:54 am 01:54 Cloudy with Mist and Fog 23 -5 21 -6.1 92 92 ESE 7 11 30.33 1027 2 3.21868 0.001 0.001
2:05 am 02:05 Cloudy with Mist and Fog 23 -5 21 -6.1 92 92 SE 7 11 30.37 1028 1.5 2.41401 0 0
2:54 am 02:54 Cloudy with Mist and Fog 23 -5 21 -6.1 92 92 ESE 9 15 30.32 1027 1.5 2.41401 0 0
3:11 am 03:11 Cloudy with Mist and Fog 23 -5 21 -6.1 92 92 SE 9 15 30.37 1028 2.5 4.02335 0 0
3:39 am 03:39 Cloudy with Mist and Fog 23 -5 21 -6.1 92 92 SE 9 15 30.36 1028 1.25 2.011675 0 0
3:54 am 03:54 Cloudy with Mist and Fog 23 -5 21 -6.1 92 92 SE 8 13 30.31 1026 2 3.21868 0 0
4:13 am 04:13 Cloudy with Mist and Fog 23 -5 21 -6.1 92 92 ESE 8 13 30.35 1028 3 4.82802 0 0
4:21 am 04:21 Cloudy with Light Snow 23 -5 21 -6.1 92 92 SE 7 11 30.35 1028 2 3.21868 0.001 0.001
4:32 am 04:32 Cloudy with Mist and Fog 23 -5 21 -6.1 92 92 SE 7 11 30.35 1028 3 4.82802 0.001 0.001
4:50 am 04:50 Cloudy with Mist and Fog 23 -5 19 -7 86 86 SE 10 17 30.34 1027 2.5 4.02335 0.001 0.001
4:54 am 04:54 Cloudy with Mist and Fog 23 -5 20 -6.7 88 88 SE 9 15 30.29 1026 2 3.21868 0.001 0.001
5:03 am 05:03 Cloudy with Light Snow 23 -5 20 -6.7 88 88 SE 8 13 30.34 1027 1.5 2.41401 0.001 0.001
5:19 am 05:19 Cloudy with Light Snow 23 -5 20 -6.7 88 88 SE 8 13 30.33 1027 3 4.82802 0.001 0.001
5:54 am 05:54 Cloudy with Mist and Fog 23 -5 21 -6.1 92 92 SE 8 13 30.29 1026 4 6.43736 0.001 0.001
6:34 am 06:34 Cloudy with Snow 23 -5 21 -6.1 92 92 SSE 8 13 30.32 1027 2 3.21868 0.001 0.001
6:54 am 06:54 Cloudy with Mist and Fog 23 -5 21 -6.1 92 92 SE 9 15 30.28 1025 3 4.82802 0.001 0.001
7:11 am 07:11 Cloudy with Mist and Fog 23 -5 21 -6.1 92 92 SE 9 15 30.32 1027 2.5 4.02335 0 0
7:49 am 07:49 Cloudy with Light Snow 25 -4 21 -6 86 86 SE 8 13 30.32 1027 1.25 2.011675 0.001 0.001
7:54 am 07:54 Cloudy with Light Snow 24 -4.4 21 -6.1 88 88 SE 9 15 30.29 1026 1.25 2.011675 0.001 0.001
8:54 am 08:54 Cloudy with Light Snow 24 -4.4 21 -6.1 88 88 ESE 8 13 30.29 1026 1.25 2.011675 0.001 0.001
9:54 am 09:54 Cloudy with Mist and Fog 25 -3.9 22 -5.6 88 88 SE 9 15 30.29 1026 1.25 2.011675 0.001 0.001
10:01 am 10:01 Cloudy with Mist and Fog 25 -3.9 22 -5.6 88 88 SE 9 15 30.32 1027 5 8.0467 0 0
10:08 am 10:08 Cloudy with Mist and Fog 25 -3.9 23 -5 92 92 SE 8 13 30.31 1026 2.5 4.02335 0 0
10:54 am 10:54 Cloudy with Mist and Fog 26 -3.3 23 -5 88 88 SSE 9 15 30.27 1025 4 6.43736 0 0
11:45 am 11:45 Cloudy with Mist and Fog 27 -2.8 24 -4.4 89 89 SE 9 15 30.28 1026 5 8.0467 0 0
11:54 am 11:54 Cloudy with Mist and Fog 27 -2.8 24 -4.4 89 89 SE 10 17 30.25 1025 5 8.0467 0 0
12:54 pm 12:54 Cloudy with Mist and Fog 28 -2.2 25 -3.9 88 88 SSE 7 11 30.22 1023 4 6.43736 0 0
1:54 pm 13:54 Cloudy with Mist and Fog 30 -1.1 26 -3.3 85 85 SSE 9 15 30.2 1023 6 9.65604 0 0
2:54 pm 14:54 Cloudy with Haze 31 -0.6 26 -3.3 82 82 SSE 9 15 30.18 1022 6 9.65604 0 0
3:54 pm 15:54 Cloudy with Haze 31 -0.6 26 -3.3 82 82 SE 9 15 30.17 1022 5 8.0467 0 0
4:54 pm 16:54 Cloudy with Mist and Fog 31 -0.6 27 -2.8 85 85 SSE 9 15 30.16 1021 5 8.0467 0 0
5:54 pm 17:54 Cloudy with Mist and Fog 31 -0.6 27 -2.8 85 85 ESE 8 13 30.16 1021 4 6.43736 0 0
6:54 pm 18:54 Cloudy with Mist and Fog 30 -1.1 26 -3.3 85 85 ESE 7 11 30.16 1021 5 8.0467 0 0
7:54 pm 19:54 Cloudy with Mist and Fog 29 -1.7 25 -3.9 85 85 ESE 5 7 30.15 1021 6 9.65604 0 0
8:54 pm 20:54 Cloudy 25 -3.9 21 -6.1 85 85 ENE 5 7 30.14 1021 7 11.26538 0 0
9:01 pm 21:01 Clear with Mist and Fog 24 -4.4 20 -6.7 84 84 NE 5 7 30.18 1022 6 9.65604 0 0
9:54 pm 21:54 Clear with Mist and Fog 23 -5 20 -6.7 88 88 ENE 5 7 30.14 1021 6 9.65604 0 0
10:54 pm 22:54 Clear with Mist and Fog 23 -5 20 -6.7 88 88 Calm 30.11 1020 6 9.65604 0 0
11:54 pm 23:54 Clear with Mist and Fog 21 -6.1 18 -7.8 88 88 Calm 30.11 1020 5 8.0467 0 0

Powered by AerisWeather